KE0TNI-13 Weather Reports


time (UTC)temp
C
wind
direction
speed
KPH
gust
KPH
rain 1hr
cm
rain 24hr
cm
rain mn
cm
humidity
%
barometer
mb
20260505040815 2 120 6.4 6.4 0.23 0.81 0.81 95 1015.9
20260505040313 2 102 3.2 3.2 0.36 0.79 0.79 94 1016.1
20260505035809 1 99 3.2 4.8 0.36 0.76 0.76 94 1016.1
20260505035305 2 80 1.6 3.2 0.36 0.74 0.74 94 1015.9
20260505034803 2 123 1.6 3.2 0.30 0.71 0.71 94 1016.2
20260505034259 2 142 0.0 3.2 0.43 0.66 0.66 94 1016.5
20260505033756 2 118 3.2 3.2 0.53 0.64 0.64 94 1016.2
20260505033254 2 171 0.0 3.2 0.48 0.61 0.61 94 1015.9
20260505032751 3 136 0.0 3.2 0.30 0.56 0.56 94 1016.1
20260505032247 3 39 0.0 1.6 0.23 0.51 0.51 94 1016.2
20260505031745 3 65 1.6 3.2 0.13 0.51 0.51 93 1015.9
20260505031241 3 34 0.0 4.8 0.05 0.48 0.48 92 1015.8
20260505030738 3 89 1.6 6.4 0.13 0.48 0.48 92 1015.4
20260505030234 3 136 6.4 8.0 0.13 0.46 0.46 91 1015.6
20260505025730 3 122 4.8 6.4 0.18 0.46 0.46 90 1015.7
20260505025228 3 104 4.8 6.4 0.18 0.46 0.46 90 1015.6
20260505024726 3 113 4.8 8.0 0.05 0.43 0.43 89 1015.4
20260505024223 3 87 4.8 6.4 0.00 0.43 0.43 90 1015.4
20260505023720 3 103 4.8 6.4 0.00 0.43 0.43 88 1015.2
20260505023217 3 71 4.8 9.7 0.00 0.43 0.43 90 1014.9
20260505022715 3 119 3.2 4.8 0.00 0.43 0.43 90 1015.2
20260505022212 3 112 4.8 4.8 0.00 0.43 0.43 91 1015.0
20260505021708 3 122 4.8 6.4 0.00 0.43 0.43 92 1014.8
20260505021206 3 18 3.2 8.0 0.00 0.43 0.43 92 1014.8
20260505020701 3 114 3.2 3.2 0.00 0.43 0.43 92 1014.7
20260505020157 3 45 3.2 4.8 0.00 0.43 0.43 90 1014.5
20260505015655 3 87 4.8 4.8 0.00 0.43 0.43 90 1014.4
20260505015151 3 103 6.4 6.4 0.00 0.43 0.43 88 1014.5
20260505014648 3 125 8.0 14.5 0.00 0.43 0.43 87 1014.1
20260505014145 3 124 8.0 11.3 0.00 0.43 0.43 88 1014.7
20260505013642 3 127 8.0 14.5 0.00 0.43 0.43 86 1014.4
20260505013139 4 136 9.7 11.3 0.00 0.43 0.43 87 1014.4
20260505012638 4 120 8.0 9.7 0.00 0.43 0.43 88 1014.8
20260505012134 4 116 4.8 9.7 0.00 0.43 0.43 89 1014.7
20260505011630 4 134 8.0 12.9 0.00 0.43 0.43 90 1015.0
20260505011128 4 152 6.4 9.7 0.00 0.43 0.43 90 1015.0
20260505010628 5 157 6.4 9.7 0.00 0.43 0.43 90 1014.7
20260505010125 5 153 4.8 9.7 0.00 0.43 0.43 90 1014.9
20260505005621 5 96 4.8 4.8 0.00 0.43 0.43 88 1014.7
20260505005118 5 80 4.8 4.8 0.00 0.43 0.43 88 1014.7
20260505004615 5 104 0.0 8.0 0.00 0.43 0.43 86 1014.7
20260505004112 5 105 4.8 12.9 0.00 0.43 0.43 90 1014.7
20260505003609 4 140 6.4 9.7 0.00 0.43 0.43 93 1014.4
20260505003107 4 139 9.7 11.3 0.00 0.43 0.43 93 1014.7
20260505002602 4 138 8.0 12.9 0.05 0.43 0.43 93 1015.2
20260505002101 3 140 8.0 9.7 0.18 0.43 0.43 92 1014.9
20260505001558 3 105 4.8 9.7 0.23 0.41 0.41 92 1015.6
20260505001055 3 124 6.4 9.7 0.30 0.38 0.38 89 1015.8
20260505000552 3 95 3.2 4.8 0.36 0.38 0.38 88 1016.1
20260505000049 3 73 3.2 4.8 0.23 0.33 0.33 89 1016.1
20260504235546 3 34 3.2 4.8 0.18 0.33 0.33 89 1016.2
20260504235043 3 102 1.6 6.4 0.13 0.30 0.30 88 1015.8
20260504234540 3 49 0.0 6.4 0.13 0.28 0.28 88 1015.8
20260504234037 3 219 3.2 4.8 0.13 0.28 0.28 87 1015.4
20260504233532 3 250 3.2 4.8 0.13 0.28 0.28 86 1015.6
20260504233029 3 274 3.2 6.4 0.13 0.25 0.25 86 1015.2
20260504232526 4 45 0.0 3.2 0.13 0.25 0.25 87 1015.0
20260504232024 4 125 3.2 4.8 0.18 0.23 0.23 88 1015.0
20260504231520 4 97 3.2 4.8 0.05 0.23 0.23 89 1014.9
20260504231016 5 124 3.2 4.8 0.00 0.20 0.20 90 1014.8
20260504230513 5 127 3.2 3.2 0.05 0.20 0.20 90 1014.8
20260504230012 4 74 3.2 4.8 0.13 0.20 0.20 89 1014.5
20260504225508 4 104 4.8 4.8 0.13 0.20 0.20 88 1014.8
20260504225006 4 114 0.0 1.6 0.13 0.18 0.18 86 1014.3
20260504224502 5 111 4.8 6.4 0.18 0.18 0.18 84 1014.4
20260504223959 5 86 3.2 6.4 0.30 0.15 0.15 81 1014.4
20260504223455 5 95 1.6 6.4 0.36 0.15 0.15 79 1014.4
20260504222951 6 58 3.2 4.8 0.23 0.10 0.10 75 1014.0
20260504222449 7 75 6.4 8.0 0.23 0.10 0.10 74 1014.3
20260504221946 8 106 3.2 4.8 0.43 0.08 0.08 67 1014.1
20260504221443 10 100 3.2 3.2 0.30 0.05 0.05 60 1013.9
20260504220940 11 35 3.2 6.4 0.00 0.00 0.00 45 1013.9
20260504220436 11 120 4.8 6.4 0.00 0.00 0.00 42 1013.9
20260504215934 11 43 3.2 6.4 0.00 0.00 0.00 41 1014.0
20260504215431 11 129 0.0 3.2 0.00 0.00 0.00 39 1013.6
20260504214927 11 147 3.2 6.4 0.00 0.00 0.00 39 1013.6
20260504214423 11 126 1.6 6.4 0.00 0.00 0.00 38 1013.6
20260504213920 11 135 3.2 9.7 0.00 0.00 0.00 38 1013.7
20260504213416 12 133 6.4 6.4 0.00 0.00 0.00 38 1013.7
20260504212914 12 157 3.2 4.8 0.00 0.00 0.00 37 1013.9
20260504212409 11 43 0.0 3.2 0.00 0.00 0.00 37 1013.7
20260504211908 11 306 3.2 3.2 0.00 0.00 0.00 38 1014.1
20260504211403 11 187 4.8 9.7 0.00 0.00 0.00 38 1014.3
20260504210901 12 133 6.4 8.0 0.00 0.00 0.00 39 1014.0
20260504210358 12 112 3.2 6.4 0.00 0.00 0.00 38 1014.1
20260504205855 12 133 9.7 11.3 0.00 0.00 0.00 37 1014.4
20260504205353 12 310 0.0 6.4 0.00 0.00 0.00 38 1014.3
20260504204850 12 137 6.4 9.7 0.00 0.00 0.00 36 1014.1
20260504204349 13 238 4.8 4.8 0.00 0.00 0.00 38 1014.4
20260504203848 12 42 9.7 9.7 0.00 0.00 0.00 37 1014.5
20260504203344 12 310 3.2 6.4 0.00 0.00 0.00 41 1014.7
20260504202840 12 342 3.2 6.4 0.00 0.00 0.00 41 1014.7
20260504202337 13 271 6.4 8.0 0.00 0.00 0.00 40 1014.5
20260504201834 12 237 6.4 9.7 0.00 0.00 0.00 41 1014.7
20260504201331 12 177 3.2 8.0 0.00 0.00 0.00 42 1014.7
20260504200829 12 224 3.2 6.4 0.00 0.00 0.00 41 1014.8
20260504200325 11 182 3.2 6.4 0.00 0.00 0.00 45 1015.2
20260504195821 11 332 3.2 6.4 0.00 0.00 0.00 43 1014.9
20260504195317 11 258 3.2 8.0 0.00 0.00 0.00 43 1014.8
20260504194814 11 239 1.6 8.0 0.00 0.00 0.00 43 1015.0
20260504194310 10 347 0.0 3.2 0.00 0.00 0.00 44 1014.9
20260504193806 10 230 4.8 6.4 0.00 0.00 0.00 42 1015.0
20260504193304 10 228 0.0 4.8 0.00 0.00 0.00 42 1014.9
20260504192803 10 172 1.6 3.2 0.00 0.00 0.00 40 1015.3
20260504192300 10 289 3.2 4.8 0.00 0.00 0.00 41 1015.2
20260504191759 11 232 3.2 4.8 0.00 0.00 0.00 40 1015.0
20260504191255 11 214 0.0 11.3 0.00 0.00 0.00 40 1015.2
20260504190751 11 158 3.2 4.8 0.00 0.00 0.00 40 1015.2
20260504190247 11 299 1.6 4.8 0.00 0.00 0.00 39 1014.9
20260504185744 11 99 3.2 9.7 0.00 0.00 0.00 38 1015.2
20260504185241 11 296 0.0 6.4 0.00 0.00 0.00 39 1014.9
20260504184737 11 195 1.6 3.2 0.00 0.00 0.00 39 1015.2
20260504184233 11 265 4.8 6.4 0.00 0.00 0.00 37 1014.9
20260504183729 12 247 3.2 6.4 0.00 0.00 0.00 37 1014.9
20260504183226 13 245 3.2 9.7 0.00 0.00 0.00 34 1014.7
20260504182724 14 252 6.4 11.3 0.00 0.00 0.00 34 1014.7
20260504182221 13 248 4.8 6.4 0.00 0.00 0.00 33 1014.9
20260504181719 11 65 4.8 8.0 0.00 0.00 0.00 29 1014.9
20260504181216 11 128 6.4 9.7 0.00 0.00 0.00 30 1014.9
20260504180715 11 81 3.2 9.7 0.00 0.00 0.00 30 1015.3
20260504180213 11 132 8.0 14.5 0.00 0.00 0.00 32 1015.2
20260504175710 11 148 8.0 12.9 0.00 0.00 0.00 30 1015.0
20260504175207 11 117 6.4 19.3 0.00 0.00 0.00 31 1014.9
20260504174705 12 110 3.2 6.4 0.00 0.00 0.00 30 1015.2
20260504174202 12 152 3.2 3.2 0.00 0.00 0.00 30 1015.0
20260504173658 12 97 3.2 11.3 0.00 0.00 0.00 30 1015.3
20260504173156 12 147 4.8 4.8 0.00 0.00 0.00 29 1015.3
20260504172652 12 22 3.2 3.2 0.00 0.00 0.00 31 1015.4
20260504172149 12 214 0.0 8.0 0.00 0.00 0.00 30 1015.2
20260504171645 12 251 0.0 4.8 0.00 0.00 0.00 29 1015.0
20260504171143 13 198 3.2 4.8 0.00 0.00 0.00 27 1015.6
20260504170639 14 116 6.4 8.0 0.00 0.00 0.00 26 1015.3
20260504170136 13 112 3.2 12.9 0.00 0.00 0.00 28 1015.7
20260504151028 9 279 4.8 14.5 0.00 0.00 0.00 37 1016.6
20260504150525 9 115 6.4 11.3 0.00 0.00 0.00 37 1016.5
20260504140956 8 138 6.4 9.7 0.00 0.00 0.00 35 1016.5
20260504140453 8 130 1.6 6.4 0.00 0.00 0.00 34 1016.7
20260504130418 8 162 1.6 14.5 0.00 0.00 0.00 33 1015.9
20260504110305 2 84 3.2 4.8 0.00 0.00 0.00 52 1016.3
20260504100223 3 119 3.2 4.8 0.00 0.00 0.00 51 1016.5
20260504081616 2 104 4.8 6.4 0.00 0.00 0.00 54 1017.4
20260504081111 2 128 4.8 4.8 0.00 0.00 0.00 53 1017.2
20260504080609 3 135 6.4 6.4 0.00 0.00 0.00 52 1017.5
20260504080105 3 102 4.8 6.4 0.00 0.00 0.00 50 1017.5
20260504050421 5 95 3.2 6.4 0.00 0.00 0.00 48 1018.4
20260504045918 5 94 3.2 6.4 0.00 0.00 0.00 50 1018.8
20260504045414 5 124 4.8 4.8 0.00 0.00 0.00 51 1018.4
20260504044910 5 128 0.0 6.4 0.00 0.00 0.00 50 1018.7
20260504044408 5 97 3.2 6.4 0.00 0.00 0.00 48 1018.8
20260504043905 5 113 4.8 6.4 0.00 0.00 0.00 48 1019.1
20260504043402 5 101 3.2 4.8 0.00 0.00 0.00 49 1018.8
20260504042900 5 112 4.8 4.8 0.00 0.00 0.00 49 1018.7
20260504042355 5 103 6.4 6.4 0.00 0.00 0.00 49 1018.9
20260504041852 5 99 4.8 6.4 0.00 0.00 0.00 49 1019.1
20260504041348 5 96 4.8 6.4 0.00 0.00 0.00 50 1018.8
20260504040845 5 113 4.8 8.0 0.00 0.00 0.00 50 1018.8